Probability
35 10 3 0 0 0 0 0 0 0 0 0 0 0 0 0 0 0 0 0 3 10 16 19 23 23 29 26 26 23 26 29 29 32 32 32 32 39 39 32 32 35 35 35 48 48 48 48 45
23 10 0 0 0 0 0 0 0 0 0 0 0 0 0 0 0 0 0 3 6 10 10 16 23 23 26 23 19 23 23 23 32 29 29 29 32 35 32 32 32 32 29 32 35 42 45 55 45
16 6 0 0 0 0 0 0 0 0 0 0 0 0 0 0 6 3 0 3 3 6 10 16 23 19 23 23 23 23 26 26 29 32 32 29 32 19 23 23 23 26 26 26 32 39 42 39 39
6 0 0 0 0 0 0 0 0 0 0 0 0 0 0 3 3 3 3 3 3 6 10 13 16 19 19 23 26 26 26 26 26 29 29 26 16 19 19 19 19 26 26 29 32 39 39 35 39
0 0 0 0 0 0 0 0 0 0 0 0 0 0 0 0 6 6 3 3 3 3 6 10 16 19 19 19 23 19 19 19 13 16 16 10 13 13 13 16 19 26 26 29 32 32 39 39 32
0 0 0 0 0 0 0 0 0 0 0 0 0 0 0 3 3 3 3 3 3 3 3 6 10 13 10 10 10 16 19 16 13 16 13 10 13 13 16 16 16 26 26 32 32 39 32 29 32
0 0 0 0 0 0 0 0 0 0 0 0 0 0 0 0 3 3 3 3 3 3 3 3 6 6 6 10 10 13 10 19 16 13 19 16 19 16 13 19 19 19 26 29 32 35 29 26 29
0 0 0 0 0 0 0 0 0 0 0 0 0 0 0 0 3 3 3 3 3 3 3 3 3 3 3 3 3 3 3 3 10 16 13 10 6 6 13 19 19 16 19 26 29 29 26 26 29
0 0 0 0 0 0 0 0 0 0 0 0 0 0 0 0 3 3 3 3 3 3 3 3 3 3 0 0 0 0 0 0 0 0 6 3 0 0 3 3 13 16 16 19 19 16 19 13 13
0 0 0 0 0 0 0 0 0 0 0 0 0 0 0 0 3 3 3 3 3 3 3 0 0 0 0 0 0 0 0 0 0 0 0 0 0 0 0 0 6 6 3 0 10 10 0 0 0
0 0 0 0 0 0 0 0 0 0 0 0 0 0 0 3 3 3 3 3 3 3 3 3 0 0 0 0 0 0 0 0 0 0 0 0 0 0 0 0 0 0 0 0 0 0 0 0 0
0 0 0 0 0 0 0 0 0 0 0 0 0 0 0 3 3 3 3 3 3 3 3 3 0 0 0 0 0 0 0 0 0 0 0 0 0 0 0 0 0 0 0 0 0 0 0 0 0
0 0 0 0 0 0 0 0 0 0 0 0 0 0 0 0 3 3 3 3 3 3 3 3 0 0 0 0 0 0 0 0 0 0 0 0 0 0 0 0 0 0 0 0 0 0 0 0 0
0 0 0 0 0 0 0 0 0 0 0 0 0 0 0 0 0 3 6 3 3 3 3 3 3 0 0 0 0 0 0 0 0 0 0 0 0 0 0 0 0 0 0 0 0 0 0 0 0
0 0 0 0 0 0 0 0 0 0 0 0 0 0 0 0 0 3 6 6 3 3 3 3 3 0 0 0 0 0 0 0 0 0 0 0 0 0 0 0 0 0 0 0 0 0 0 0 0
0 0 0 0 0 0 0 0 0 0 0 0 0 0 0 3 3 3 3 6 6 3 3 3 3 0 0 0 0 0 0 0 0 0 0 0 0 0 0 0 0 0 0 0 0 0 0 0 0
0 0 0 0 0 0 0 0 0 0 0 0 0 0 0 0 0 3 3 3 3 3 3 3 3 3 0 0 0 0 0 0 0 0 0 0 0 0 0 0 0 0 0 0 0 0 0 0 0
0 0 0 0 0 0 0 0 0 0 0 0 0 0 0 0 0 0 3 3 3 3 3 3 3 3 0 0 0 0 0 0 0 0 0 0 0 0 0 0 0 0 0 0 0 0 0 0 0
0 0 0 0 0 0 0 0 0 0 0 0 0 0 0 0 0 0 3 3 3 3 6 6 3 3 0 0 0 0 0 0 0 0 0 0 0 0 0 0 0 0 0 0 0 0 0 0 0
0 0 0 0 0 0 0 0 0 0 0 0 0 0 0 0 3 3 3 3 3 3 6 6 6 6 0 0 0 0 0 0 0 0 0 0 0 0 0 0 0 0 0 0 0 0 0 0 0
0 0 0 0 0 0 0 0 0 0 0 0 0 0 0 3 3 3 3 3 3 3 6 6 6 6 3 0 0 0 0 0 0 0 0 0 0 0 0 0 0 0 0 0 0 0 0 0 0
0 0 0 0 0 0 0 0 0 0 0 0 0 0 0 3 3 0 0 0 3 3 6 6 6 6 3 0 0 0 0 0 0 0 0 0 0 0 0 0 0 0 0 0 0 0 0 0 0
0 0 0 0 0 0 0 0 0 0 0 0 0 0 0 0 0 0 0 0 0 0 3 6 6 6 6 0 0 0 0 0 0 0 0 0 0 0 0 0 0 0 0 0 0 0 0 0 0
0 0 0 0 0 0 0 0 0 0 0 0 0 0 0 0 0 0 0 0 0 0 0 3 6 6 6 3 0 0 0 0 0 0 0 0 0 0 0 0 0 0 0 0 0 0 0 0 0
0 0 0 0 0 0 0 0 0 0 0 0 0 0 0 0 0 0 0 0 0 0 0 0 3 3 3 3 0 0 0 0 0 0 0 0 0 0 0 0 0 0 0 0 0 0 0 0 0
0 0 0 0 0 0 0 0 0 0 0 0 0 0 0 0 0 0 0 0 0 0 0 0 3 3 3 0 0 0 0 0 0 0 0 0 0 0 0 0 0 0 0 0 0 0 0 0 0
0 0 0 0 0 0 0 0 0 0 0 0 0 0 0 0 0 0 0 0 0 0 0 0 3 3 3 0 0 0 0 0 0 0 0 0 0 0 0 0 0 0 0 0 0 0 0 0 0
0 0 0 0 0 0 0 0 0 0 0 0 0 0 0 0 0 0 0 0 0 0 0 0 3 3 3 3 0 0 0 0 0 0 0 0 0 0 0 0 0 0 0 0 0 0 0 0 0
0 0 0 0 0 0 0 0 0 0 0 0 0 0 0 0 0 0 0 0 0 0 0 0 3 3 3 3 0 0 0 0 0 0 0 0 0 0 0 0 0 0 0 0 0 0 0 0 0
0 0 0 0 0 0 0 0 0 0 0 0 0 0 0 0 0 0 0 0 0 0 0 0 0 3 3 3 0 0 0 0 0 0 0 0 0 0 0 0 0 0 0 0 0 0 0 0 0
Height
5872 5872 5873 5875 5876 5876 5877 5878 5878 5879 5880 5880 5881 5882 5883 5884 5885 5888 5886 5884 5885 5885 5884 5884 5884 5884 5885 5885 5885 5885 5885 5886 5886 5886 5886 5886 5886 5886 5886 5886 5886 5886 5886 5885 5885 5885 5884 5883 5883
5872 5873 5875 5876 5876 5876 5877 5878 5878 5879 5880 5881 5881 5882 5883 5883 5884 5885 5885 5885 5885 5885 5885 5884 5884 5885 5885 5886 5886 5886 5886 5886 5886 5886 5887 5887 5887 5886 5886 5886 5886 5886 5886 5885 5885 5884 5884 5883 5883
5872 5873 5875 5876 5876 5877 5878 5878 5879 5879 5880 5881 5881 5882 5883 5883 5884 5884 5885 5885 5885 5885 5885 5885 5885 5885 5886 5886 5886 5886 5886 5886 5886 5886 5887 5887 5887 5886 5886 5886 5886 5886 5886 5885 5885 5884 5884 5883 5882
5873 5874 5875 5876 5876 5877 5877 5878 5878 5879 5880 5881 5881 5882 5883 5883 5884 5884 5884 5884 5884 5885 5885 5885 5885 5885 5886 5886 5886 5886 5886 5886 5886 5886 5886 5886 5886 5886 5886 5886 5886 5886 5886 5885 5885 5884 5883 5883 5882
5873 5874 5875 5875 5876 5877 5877 5878 5878 5879 5880 5881 5881 5882 5882 5883 5883 5883 5884 5884 5884 5884 5885 5885 5885 5885 5885 5885 5885 5886 5886 5886 5886 5886 5886 5886 5886 5886 5886 5886 5886 5885 5885 5885 5884 5884 5883 5883 5882
5874 5874 5875 5876 5876 5876 5877 5877 5878 5879 5880 5880 5881 5882 5882 5882 5882 5883 5883 5883 5884 5884 5884 5884 5885 5884 5885 5885 5885 5885 5885 5885 5885 5885 5885 5885 5885 5885 5885 5885 5885 5885 5884 5884 5884 5883 5882 5882 5881
5874 5874 5874 5875 5876 5876 5877 5877 5878 5878 5879 5880 5881 5881 5881 5882 5882 5882 5883 5883 5883 5883 5884 5884 5884 5884 5884 5884 5884 5884 5884 5885 5885 5885 5885 5885 5885 5884 5884 5884 5884 5884 5883 5883 5883 5882 5882 5881 5880
5873 5874 5874 5875 5875 5876 5877 5877 5877 5878 5879 5880 5880 5881 5881 5881 5881 5882 5882 5882 5882 5883 5883 5883 5883 5883 5883 5883 5883 5883 5883 5884 5884 5884 5884 5884 5884 5883 5883 5883 5883 5883 5882 5882 5882 5881 5881 5880 5879
5872 5874 5873 5874 5875 5876 5876 5877 5877 5877 5878 5879 5879 5880 5880 5880 5880 5880 5881 5881 5881 5882 5882 5882 5883 5882 5882 5882 5882 5882 5882 5883 5883 5883 5883 5883 5882 5882 5882 5882 5882 5881 5881 5881 5881 5880 5880 5879 5879
5871 5872 5873 5874 5874 5875 5875 5876 5877 5877 5877 5878 5878 5879 5879 5879 5879 5880 5880 5880 5880 5881 5881 5881 5882 5881 5881 5881 5881 5881 5881 5881 5882 5882 5881 5881 5881 5881 5881 5881 5880 5880 5880 5879 5879 5879 5879 5878 5878
5870 5871 5871 5872 5873 5874 5874 5875 5876 5876 5876 5877 5877 5877 5878 5878 5878 5879 5879 5879 5879 5879 5879 5880 5880 5880 5880 5880 5880 5880 5880 5880 5880 5880 5880 5880 5880 5880 5879 5879 5879 5879 5879 5878 5878 5878 5878 5877 5876
5869 5870 5870 5871 5872 5872 5873 5874 5874 5875 5876 5876 5876 5876 5876 5877 5877 5877 5877 5877 5878 5878 5878 5878 5878 5879 5879 5879 5879 5879 5879 5879 5879 5879 5879 5878 5878 5878 5878 5878 5878 5878 5878 5877 5877 5877 5876 5876 5875
5868 5869 5869 5870 5870 5871 5872 5872 5873 5873 5874 5874 5874 5875 5875 5875 5876 5876 5876 5876 5876 5877 5877 5877 5877 5877 5877 5877 5877 5877 5877 5877 5877 5877 5877 5877 5877 5877 5877 5877 5877 5876 5876 5876 5876 5875 5875 5874 5874
5867 5868 5868 5869 5870 5870 5870 5871 5872 5872 5872 5872 5873 5873 5873 5874 5874 5874 5874 5875 5875 5875 5875 5875 5875 5876 5876 5876 5876 5876 5876 5876 5876 5876 5875 5875 5875 5875 5875 5876 5875 5875 5875 5875 5874 5874 5873 5873 5872
5865 5867 5868 5868 5868 5869 5870 5870 5870 5870 5870 5871 5871 5872 5872 5872 5872 5873 5873 5873 5873 5873 5874 5874 5874 5874 5874 5874 5874 5874 5874 5874 5874 5874 5874 5874 5874 5874 5874 5874 5874 5873 5873 5873 5873 5872 5872 5871 5871
5864 5866 5866 5867 5867 5867 5869 5869 5869 5868 5869 5869 5870 5870 5870 5870 5871 5871 5871 5871 5871 5872 5872 5872 5872 5872 5872 5872 5872 5872 5872 5872 5872 5872 5872 5872 5872 5872 5872 5872 5872 5872 5872 5871 5871 5871 5870 5870 5869
5863 5864 5864 5865 5865 5865 5866 5867 5867 5867 5867 5867 5868 5868 5868 5869 5869 5869 5869 5869 5870 5870 5870 5870 5871 5870 5870 5870 5870 5870 5870 5870 5870 5870 5870 5870 5870 5870 5870 5870 5870 5870 5870 5870 5869 5869 5868 5868 5867
5861 5862 5862 5863 5863 5864 5864 5865 5865 5865 5865 5865 5866 5866 5866 5867 5867 5867 5867 5868 5868 5868 5868 5868 5869 5869 5869 5869 5869 5869 5869 5869 5868 5868 5868 5868 5868 5868 5868 5868 5868 5868 5868 5868 5868 5867 5867 5866 5866
5859 5860 5860 5861 5861 5862 5862 5863 5863 5863 5863 5863 5864 5864 5864 5864 5865 5865 5865 5865 5866 5866 5866 5866 5867 5867 5867 5867 5867 5867 5867 5867 5866 5866 5866 5866 5866 5866 5866 5866 5866 5866 5866 5866 5866 5865 5865 5864 5864
5857 5858 5858 5858 5859 5859 5859 5860 5861 5861 5861 5861 5862 5862 5862 5862 5862 5863 5863 5863 5863 5864 5864 5864 5864 5864 5865 5865 5865 5865 5865 5865 5864 5864 5864 5864 5864 5864 5864 5864 5864 5864 5864 5864 5864 5863 5863 5862 5862
5854 5855 5856 5856 5856 5856 5857 5858 5858 5859 5859 5859 5859 5860 5860 5860 5860 5860 5861 5861 5861 5861 5862 5862 5862 5862 5862 5863 5863 5863 5863 5863 5863 5862 5862 5862 5862 5862 5862 5862 5862 5862 5862 5862 5861 5861 5861 5861 5860
5852 5852 5853 5853 5853 5854 5855 5855 5856 5856 5856 5857 5857 5857 5857 5857 5858 5858 5858 5858 5859 5859 5859 5860 5860 5860 5860 5860 5860 5861 5861 5861 5861 5861 5860 5860 5860 5860 5860 5860 5860 5860 5860 5859 5859 5859 5859 5858 5858
5849 5849 5850 5850 5850 5851 5851 5852 5854 5853 5854 5854 5854 5854 5854 5855 5855 5855 5856 5856 5856 5856 5857 5857 5857 5857 5858 5858 5858 5859 5859 5859 5859 5859 5858 5858 5858 5858 5858 5858 5858 5858 5858 5857 5857 5857 5857 5856 5856
5846 5846 5846 5846 5847 5848 5849 5849 5850 5850 5851 5851 5852 5852 5852 5852 5853 5853 5853 5854 5854 5854 5854 5855 5855 5855 5855 5856 5856 5856 5856 5857 5857 5857 5856 5856 5856 5856 5856 5856 5856 5856 5856 5855 5855 5855 5855 5854 5854
5842 5843 5843 5843 5843 5844 5845 5845 5847 5847 5847 5848 5848 5848 5849 5849 5850 5850 5850 5851 5851 5852 5852 5852 5852 5852 5853 5853 5853 5854 5854 5854 5855 5855 5854 5854 5854 5854 5854 5854 5854 5854 5853 5853 5853 5853 5853 5852 5851
5839 5840 5840 5840 5840 5841 5841 5841 5844 5843 5843 5844 5844 5845 5845 5846 5846 5847 5847 5848 5848 5849 5849 5849 5849 5850 5850 5850 5851 5851 5852 5852 5852 5852 5852 5852 5852 5852 5852 5852 5852 5852 5851 5851 5851 5851 5850 5850 5849
5834 5835 5836 5836 5836 5837 5838 5839 5839 5839 5839 5840 5841 5842 5842 5842 5843 5843 5844 5845 5845 5845 5846 5846 5846 5847 5847 5848 5848 5849 5849 5850 5850 5850 5850 5850 5850 5850 5850 5850 5850 5849 5849 5849 5848 5848 5848 5847 5847
5830 5831 5831 5832 5832 5832 5834 5835 5836 5835 5835 5836 5837 5838 5838 5839 5839 5840 5840 5841 5842 5842 5843 5843 5843 5844 5845 5845 5845 5846 5846 5847 5847 5847 5848 5848 5847 5847 5847 5847 5847 5847 5847 5846 5846 5846 5845 5845 5844
5825 5826 5826 5827 5827 5828 5829 5833 5832 5831 5832 5832 5833 5834 5835 5835 5836 5836 5837 5838 5838 5839 5839 5840 5840 5841 5842 5842 5843 5843 5844 5844 5844 5845 5845 5845 5845 5845 5845 5844 5844 5844 5844 5844 5843 5843 5843 5842 5842
5820 5821 5822 5823 5823 5823 5824 5830 5827 5827 5827 5828 5829 5830 5830 5831 5832 5833 5833 5834 5834 5835 5836 5837 5837 5838 5838 5839 5839 5840 5841 5841 5842 5842 5842 5842 5842 5842 5842 5842 5841 5841 5841 5841 5841 5840 5840 5840 5839
Wind_Speed
3 3 3 3 3 4 4 3 3 3 4 4 5 5 4 3 2 1 2 1 1 1 2 2 1 1 1 2 2 2 2 3 3 3 4 4 4 4 5 5 5 5 5 5 4 4 4 4 4
3 3 3 3 3 3 3 3 3 3 3 4 4 5 4 4 2 1 1 1 1 1 1 2 1 1 1 1 1 1 2 1 1 2 2 3 3 4 4 4 4 4 5 5 5 4 4 4 5
3 3 3 3 3 3 3 3 4 3 4 4 4 4 4 3 3 2 1 1 0 1 1 0 1 0 0 1 0 0 1 1 1 1 2 2 2 3 4 4 4 5 5 6 5 5 5 5 5
3 3 3 3 3 3 3 4 4 4 4 4 4 4 3 3 2 2 2 2 2 2 2 2 2 2 1 1 1 0 1 1 1 1 2 2 2 2 3 3 4 4 5 5 5 5 5 5 5
4 4 3 3 4 4 4 4 4 4 4 4 4 4 4 3 3 3 3 3 3 3 2 2 3 3 3 2 2 2 2 2 2 2 2 2 3 3 3 3 4 5 5 5 5 5 5 5 6
5 4 4 3 4 4 4 5 5 5 4 4 4 4 5 4 4 3 3 3 3 3 3 3 3 3 3 3 3 3 3 4 4 4 3 3 3 3 4 4 5 5 5 5 5 5 5 6 6
5 5 4 3 3 4 4 4 5 5 5 5 5 5 5 5 5 5 4 4 4 4 4 4 3 4 4 4 4 4 5 5 5 5 5 4 4 4 4 5 4 4 5 5 5 5 5 6 6
6 5 4 4 3 4 4 5 5 5 4 4 5 5 5 5 6 6 6 5 5 5 5 5 4 4 5 5 5 6 6 6 6 6 6 5 5 5 4 5 4 5 5 5 6 6 6 6 6
6 6 5 5 5 5 5 6 5 5 5 4 5 5 5 5 6 6 6 6 6 6 6 6 5 5 6 5 6 6 7 7 7 6 6 6 6 5 5 5 5 5 5 6 6 6 6 6 6
6 6 6 6 6 5 6 6 6 6 6 5 6 5 5 5 5 5 6 7 6 6 6 6 6 6 6 6 6 6 6 7 7 7 7 7 7 6 6 5 6 5 5 5 6 6 6 6 6
6 6 6 6 6 6 6 7 7 7 7 6 6 6 7 7 6 6 6 7 6 6 7 7 6 6 6 6 6 6 6 6 7 7 7 7 7 6 6 5 5 6 5 5 5 6 6 7 7
7 7 7 7 7 7 7 7 7 7 7 7 8 8 8 8 8 7 7 7 7 7 7 7 7 7 7 7 6 7 7 7 7 7 7 7 7 6 6 6 5 5 5 5 6 6 7 7 7
7 7 7 7 7 7 8 7 7 7 8 8 8 9 9 9 8 8 8 8 8 8 8 8 7 8 7 8 8 8 7 7 7 7 7 7 7 6 6 6 6 5 5 6 6 6 7 7 8
7 7 7 7 7 7 7 7 7 8 8 8 8 9 9 9 9 9 9 9 9 9 9 9 8 9 9 8 8 8 8 8 8 8 7 7 7 7 6 7 6 6 6 6 7 7 7 7 8
9 9 8 8 8 8 8 8 8 8 9 9 8 9 9 9 9 9 9 9 9 9 10 9 9 8 8 8 8 9 8 8 9 8 8 8 8 8 7 7 7 7 7 7 7 7 7 8 8
10 9 9 9 9 9 9 8 8 9 9 9 9 9 10 9 10 10 10 10 10 10 10 9 9 9 8 8 8 8 9 9 9 9 9 9 9 8 8 8 8 8 7 7 7 8 8 8 8
10 10 10 10 10 10 10 9 10 10 9 9 9 10 10 10 10 11 11 11 10 10 10 9 9 9 8 8 8 8 8 9 9 9 10 10 10 9 9 9 9 8 8 8 8 8 8 8 8
10 11 11 11 11 11 11 10 10 11 10 10 10 10 10 10 10 11 11 11 11 10 10 10 10 9 9 9 8 8 8 9 9 9 10 10 10 10 9 9 9 8 8 8 8 9 8 8 7
11 11 11 12 12 12 12 11 11 11 11 11 10 11 11 11 11 10 11 11 11 11 10 10 10 9 9 9 9 8 8 8 9 9 9 9 9 10 10 10 9 9 9 9 8 8 8 7 7
12 12 12 12 13 13 12 12 12 12 12 11 11 10 11 12 11 11 11 11 10 11 11 10 10 9 9 9 9 8 8 8 9 9 9 10 9 9 9 8 9 9 9 9 8 8 8 8 8
13 13 13 13 13 13 13 13 12 12 12 12 11 11 11 12 12 11 11 11 11 11 11 11 10 10 10 10 9 9 8 9 9 9 9 9 9 10 9 8 9 9 9 9 9 9 8 7 8
14 14 14 15 14 13 14 14 13 12 12 12 12 12 11 11 12 11 11 11 11 12 11 11 11 10 10 10 10 9 9 9 9 9 9 8 9 9 9 8 9 9 9 9 9 8 8 8 8
15 15 16 16 16 15 14 14 13 13 12 12 12 12 12 12 11 12 11 11 11 11 11 11 11 10 10 10 10 11 10 10 9 9 8 8 8 9 9 8 8 8 9 8 8 8 8 8 9
15 16 16 16 17 16 15 15 14 14 13 13 14 14 13 13 12 12 12 12 12 12 12 11 11 11 10 10 10 10 10 10 9 8 8 8 8 9 9 9 8 8 9 8 8 8 8 8 8
16 16 16 17 17 16 16 16 15 15 14 14 14 14 14 14 14 13 12 12 12 12 12 12 12 11 11 11 10 10 10 10 9 9 8 8 8 9 9 10 9 8 8 8 8 9 8 8 8
16 16 16 17 16 16 16 17 16 16 15 14 14 14 14 15 15 14 14 13 12 12 12 12 11 11 11 11 11 11 11 10 10 9 9 9 9 9 9 9 9 9 8 8 8 8 9 9 9
17 17 17 18 18 17 17 16 16 16 16 15 14 14 14 15 15 15 14 13 13 12 12 12 12 12 12 12 12 12 11 11 10 10 10 10 10 9 10 10 10 9 9 8 9 9 9 9 9
18 17 18 18 18 18 16 16 15 16 16 15 15 14 14 14 14 15 15 14 14 13 13 12 13 13 13 12 12 12 12 11 11 11 11 11 11 11 11 11 10 9 9 9 9 9 9 9 9
18 18 18 19 19 19 17 15 15 16 15 15 15 15 15 14 14 15 15 15 15 14 14 14 13 13 13 13 12 12 12 12 11 11 11 11 11 12 12 11 10 10 10 10 9 9 10 9 9
18 18 18 19 19 19 18 16 16 16 15 15 15 15 15 15 15 15 16 16 15 15 14 14 13 13 13 13 13 12 12 12 11 11 12 12 12 12 12 11 11 11 11 10 10 10 10 9 9
Wind_Direction
181 177 169 175 171 170 168 178 165 169 169 163 168 165 165 160 145 164 152 140 80 41 60 62 51 60 65 79 95 87 79 74 73 66 57 49 47 42 34 31 32 28 21 18 20 12 360 352 348
182 182 182 187 182 183 180 181 186 179 181 177 179 179 184 180 179 182 167 163 123 33 52 77 90 99 74 67 80 85 64 83 79 57 40 34 28 20 20 18 14 14 12 10 11 7 355 347 341
196 199 194 199 199 201 195 196 210 208 203 200 194 191 198 197 201 212 208 226 239 265 287 194 186 199 316 357 322 93 51 59 54 21 359 354 1 8 3 2 358 358 358 358 355 355 350 347 344
217 214 208 217 226 220 208 208 214 214 217 219 215 210 211 214 218 235 235 251 252 247 246 232 219 231 261 271 285 315 292 309 331 336 335 338 348 349 347 346 349 347 347 348 342 341 339 341 340
223 223 221 222 230 234 224 225 225 221 221 223 232 228 231 232 236 244 246 253 252 248 253 247 239 249 264 264 273 271 280 288 295 303 302 315 323 326 326 328 330 336 338 335 329 328 328 333 334
229 229 229 226 228 234 235 231 234 232 229 229 231 229 231 237 241 243 253 247 239 240 252 261 254 256 268 268 266 265 269 288 288 289 292 304 304 310 314 312 313 319 323 325 322 321 321 325 325
238 236 238 232 230 231 232 228 229 229 232 234 238 239 240 240 240 244 253 253 242 245 251 262 265 255 256 260 266 274 273 278 281 284 290 293 289 293 296 299 301 301 305 310 310 313 314 317 318
244 240 238 238 233 235 231 234 235 232 239 239 239 246 245 241 246 250 255 258 247 243 251 256 268 266 255 260 266 268 268 271 274 277 281 285 286 288 291 292 296 297 296 296 298 301 302 306 313
245 238 239 236 234 233 232 236 245 251 249 247 245 248 247 246 251 255 254 256 257 250 251 255 263 265 259 262 267 267 268 268 271 274 276 279 283 285 287 283 286 293 294 293 292 295 298 304 310
245 242 244 242 240 239 238 239 245 253 256 253 251 253 255 257 258 261 257 258 260 257 259 262 263 266 263 267 270 268 269 271 272 273 278 281 280 280 279 278 277 282 288 293 293 293 295 303 312
251 248 248 248 247 244 244 245 247 252 257 253 254 255 254 259 262 265 264 261 260 263 263 262 265 269 269 269 273 273 273 274 272 274 277 281 279 278 278 280 281 284 290 294 295 295 296 302 307
252 248 246 247 250 253 252 254 251 252 254 253 257 260 257 256 259 260 261 261 261 262 263 257 258 266 272 273 273 271 268 272 275 274 275 277 277 277 279 286 285 289 293 291 293 298 300 301 304
247 250 248 248 252 255 256 256 256 256 256 256 258 259 258 257 256 255 258 258 258 260 265 260 262 267 273 274 272 269 264 268 272 269 266 266 270 273 277 280 283 283 283 289 296 299 298 296 298
244 250 252 253 257 259 257 256 258 259 260 259 259 258 257 256 259 257 257 259 261 261 262 264 267 270 272 272 273 270 268 268 268 269 265 264 265 269 271 272 281 283 284 289 292 294 295 297 302
247 251 254 256 256 258 260 257 256 257 258 257 257 256 256 257 258 258 259 261 261 260 260 264 267 271 270 271 271 270 270 270 268 268 267 265 267 271 273 276 280 284 284 286 291 294 294 296 297
251 250 255 258 257 260 260 260 258 256 255 253 253 254 255 258 257 256 258 260 260 261 261 264 267 269 270 273 273 270 271 272 272 269 268 267 268 272 273 273 276 279 283 288 292 294 295 296 297
252 254 256 258 258 260 259 258 259 259 258 255 254 256 257 258 258 257 258 260 260 262 263 263 269 268 271 271 268 269 271 271 270 267 266 268 268 270 272 270 274 275 279 287 292 293 295 297 298
257 257 258 260 259 259 257 254 256 259 259 259 258 259 260 260 260 259 258 258 259 261 262 263 265 267 270 269 269 270 270 268 268 266 268 269 269 273 273 270 273 274 277 281 287 291 294 295 296
259 261 262 263 261 259 257 257 257 260 260 258 258 260 259 260 257 257 255 256 257 256 257 261 263 263 265 266 270 273 271 271 268 266 269 271 272 274 275 274 272 273 274 278 282 286 289 291 293
260 262 262 261 262 261 259 259 259 260 262 260 260 261 259 259 257 255 254 256 256 255 255 259 261 261 262 264 268 271 273 274 274 269 269 270 272 271 273 275 276 274 274 278 280 281 284 287 292
260 263 263 263 261 262 262 259 259 260 262 263 262 262 262 260 257 255 256 256 256 256 257 258 259 260 258 260 263 265 272 275 274 272 273 273 274 272 270 274 277 275 277 278 279 281 285 289 292
263 266 265 265 264 263 263 262 258 258 259 261 260 259 260 261 259 255 255 256 258 257 258 258 260 259 258 258 261 263 266 270 273 273 274 274 274 271 265 267 273 276 278 279 278 280 280 285 288
261 263 265 266 265 263 262 263 260 260 261 261 259 259 259 259 257 255 255 257 259 257 255 257 261 259 257 259 261 263 264 267 272 273 273 271 270 270 266 269 275 278 279 281 281 280 280 284 289
262 264 264 264 264 264 263 264 263 263 262 260 258 258 258 257 256 256 257 258 259 256 253 256 260 259 258 257 258 261 264 267 271 272 276 277 278 270 268 272 277 279 277 281 283 283 282 288 291
261 264 264 263 262 263 264 265 267 266 263 261 259 257 255 254 254 253 253 254 255 253 252 255 256 257 258 256 256 258 263 267 270 273 276 279 282 276 271 270 274 275 275 282 286 285 284 288 291
261 263 263 263 264 266 266 267 268 267 265 263 259 258 260 257 255 254 252 250 250 252 252 255 253 254 255 255 256 256 260 265 268 271 273 278 281 281 280 276 275 275 277 280 284 286 285 285 287
261 260 262 263 264 266 266 268 268 268 268 264 261 261 262 260 256 255 253 250 248 249 252 252 253 255 256 256 256 253 257 261 264 267 271 274 275 276 279 282 279 280 278 277 281 284 286 287 286
260 260 260 261 264 265 265 266 265 266 267 264 261 259 261 260 257 256 254 251 248 248 251 252 252 254 256 256 254 254 254 255 258 263 268 271 272 273 277 277 275 277 278 275 276 281 286 288 291
260 259 259 260 262 264 266 266 266 266 266 266 265 261 258 257 255 255 254 252 251 249 249 252 254 254 254 253 251 252 254 253 255 259 264 269 273 276 277 276 273 276 277 274 274 278 283 287 290
260 259 258 259 262 264 266 266 265 265 265 263 262 259 256 253 253 254 254 255 253 251 250 251 253 253 252 252 253 252 254 256 256 257 262 267 272 276 277 274 272 273 272 270 273 278 280 284 287